User: anonymous   Login
Location: Unspecified
(0.0000°N, 0.0000°E)
Time: 11:30:23
(UTC+00:00)
Language:

DUCHIFAT 1 - Orbit

View from above orbital plane
View from above orbital plane
View from above satellite
View from above satellite

Ground track
Ground track

The orbit data is extracted from the following two-line orbital elements,

1 40021U 14033M   19349.03483332  .00000298  00000-0  36212-4 0  9997
2 40021  97.9323 274.2723 0012831 172.7860 187.3545 14.90761762298268
Epoch (UTC): 15 December 2019 00:50:09
Eccentricity: 0.0012831
inclination: 97.9323°
perigee height: 586 km
apogee height: 604 km
right ascension of ascending node: 274.2723°
argument of perigee: 172.7860°
revolutions per day: 14.90761762
mean anomaly at epoch: 187.3545°
orbit number at epoch: 29826

The dashed part of the orbit path shows where the satellite is in the earth's shadow,  

DLR